SCP
0 0 0 0 0 0 0 0 0 0 0 0 0 0 0 0 0 0 0 0 0 0 0 0 0 0 0 0 0 0 0 0 0 0 0 0 0 0 0 0 0 0 0 0
0 0 0 0 0 0 0 0 0 0 0 0 0 0 0 0 0 0 0 0 0 0 0 0 0 0 0 0 0 0 0 0 0 0 0 0 0 0 0 0 0 0 0 0
0 0 0 0 0 0 0 0 0 0 0 0 0 0 0 0 0 0 0 0 0 0 0 0 0 0 0 0 0 0 0 0 0 0 0 0 0 0 0 0 0 0 0 0
0 0 0 0 0 0 0 0 0 0 0 0 0 0 0 0 0 0 0 0 0 0 0 0 0 0 0 0 0 0 0 0 0 0 0 0 0 0 0 0 0 0 0 0
0 0 0 0 0 0 0 0 0 0 0 0 0 0 0 0 0 0 0 0 0 0 0 0 0 0 0 0 0 0 0 0 0 0 0 0 0 0 0 0 0 0 0 0
0 0 0 0 0 0 0 0 0 0 0 0 0 0 0 0 0 0 0 0 0 0 0 0 0 0 0 0 0 0 0 0 0 0 0 0 0 0 0 0 0 0 0 0
0 0 0 0 0 0 0 0 0 0 0 0 0 0 0 0 0 0 0 0 0 0 0 0 0 0 0 0 0 0 0 0 0 0 0 0 0 0 0 0 0 0 0 0
0 0 0 0 0 0 0 0 0 0 0 0 0 0 0 0 0 0 0 0 0 0 0 0 0 0 0 0 0 0 0 0 0 0 0 0 0 0 0 0 0 0 0 0
0 0 0 0 0 0 0 0 0 0 0 0 0 0 0 0 0 0 0 0 0 0 0 0 0 0 0 0 0 0 0 0 0 0 0 0 0 0 0 0 0 0 0 0
0 0 0 0 0 0 0 0 0 0 0 0 0 0 0 0 0 0 0 0 0 0 0 0 0 0 0 0 0 0 0 0 0 0 0 0 0 0 0 0 0 0 0 0
0 0 0 0 0 0 0 0 0 0 0 0 0 0 0 0 0 0 0 0 0 0 0 0 0 0 0 0 0 0 0 0 0 0 0 0 0 0 0 0 0 0 0 0
0 0 0 0 0 0 0 0 0 0 0 0 0 0 0 0 0 0 0 0 0 0 0 0 0 0 0 0 0 0 0 0 0 0 0 0 0 0 0 0 0 0 0 0
0 0 0 0 0 0 0 0 0 0 0 0 0 0 0 0 0 0 0 0 0 0 0 0 0 0 0 0 0 0 0 0 0 0 0 0 0 0 0 0 0 0 0 0
0 0 0 0 0 0 0 0 0 0 0 0 0 0 0 0 0 0 0 0 0 0 0 0 0 0 0 0 0 0 0 0 0 0 0 0 0 0 0 0 0 0 0 0
0 0 0 0 0 0 0 0 0 0 0 0 0 0 0 0 0 0 0 0 0 0 0 0 0 0 0 0 0 0 0 0 0 0 0 0 0 0 0 0 0 0 0 0
0 0 0 0 0 0 0 0 0 0 0 0 0 0 0 0 0 0 0 0 0 0 0 0 0 0 0 0 0 0 0 0 0 0 0 0 0 0 0 0 0 0 0 0
0 0 0 0 0 0 0 0 0 0 0 0 0 0 0 0 0 0 0 0 0 0 0 0 0 0 0 0 0 0 0 0 0 0 0 0 0 0 0 0 0 0 0 0
0 0 0 0 0 0 0 0 0 0 0 0 0 0 0 0 0 0 0 0 0 0 0 0 0 0 0 0 0 0 0 0 0 0 0 0 0 0 -0 0 0 0 0 0
0 0 0 0 0 0 0 0 0 0 0 0 0 0 0 0 0 0 0 0 0 0 0 0 0 0 0 0 0 0 0 0 0 0 -0 -0 0 0 0 0 0 0 0 0
0 0 0 0 0 0 0 0 0 0 0 0 0 0 0 0 0 0 0 0 0 0 0 0 0 -0 -0 0 0 0 0 0 0 0 -0 -0 -0 0 0 0 0 0 0 0
0 0 0 0 0 0 0 0 0 0 0 0 0 0 0 0 0 0 0 0 0 0 0 0 0 -0 -0 0 0 0 0 0 0 0 -0 -0 -0 0 0 0 0 0 0 0
0 0 0 0 0 0 0 0 0 0 0 0 0 0 0 0 0 0 0 0 0 0 0 0 -0 -0 -0 -0 0 0 0 0 0 0 0 0 0 0 0 0 0 0 0 0
0 0 0 0 0 0 0 -0 -0 -0 0 0 0 0 0 0 0 0 0 0 0 0 0 0 -0 -0 -0 -0 -0 -0 0 0 0 0 0 0 0 0 0 0 0 0 0 0
0 0 0 0 0 0 0 -0 -0 -0 -0 0 0 0 0 0 0 0 0 0 0 0 0 0 0 -0 0 0 0 -0 0 0 0 0 0 0 0 0 0 0 0 0 0 0
0 0 0 0 0 0 0 -0 -0 -0 -0 0 0 0 0 0 0 0 0 0 0 0 0 0 0 0 0 0 0 0 0 0 0 0 0 0 0 0 0 0 0 0 0 0
0 0 0 0 0 0 0 -0 -0 -0 0 0 0 0 0 0 0 0 0 0 0 0 0 0 0 0 0 0 0 0 0 0 0 0 0 0 0 0 0 0 0 0 0 0
Wind_Speed
3 3 4 4 2 3 3 2 1 1 2 4 5 7 7 6 5 7 8 9 10 11 12 11 11 10 9 8 8 8 7 7 5 4 5 5 6 5 5 6 7 8 7 8
4 4 4 3 3 4 3 2 1 1 1 4 5 7 4 3 4 7 9 10 10 12 12 12 12 10 10 9 8 7 7 6 6 5 5 5 5 4 4 4 6 7 8 8
4 4 4 4 3 3 2 2 1 2 5 3 5 3 2 2 3 6 8 9 10 11 12 12 12 11 10 9 8 7 7 6 5 5 4 3 3 3 4 4 5 6 7 8
3 2 3 3 2 2 1 1 2 3 4 1 3 3 1 2 3 7 10 10 11 12 12 11 12 12 11 10 9 8 6 5 4 3 3 4 3 4 5 4 4 5 6 7
2 2 2 1 1 2 0 1 2 3 3 3 2 3 1 2 4 8 9 10 11 11 11 11 12 11 11 10 9 8 7 6 5 3 2 3 3 4 3 3 4 5 5 5
2 1 1 0 0 2 1 1 2 2 3 3 2 3 2 1 5 7 8 9 10 10 10 11 11 11 10 10 9 8 8 8 6 3 2 2 3 3 2 3 3 3 3 3
2 2 1 1 1 3 2 2 2 3 3 1 2 4 2 2 3 4 6 7 8 9 10 11 12 11 11 11 10 9 9 8 7 5 3 3 2 2 3 3 3 3 3 3
1 1 2 2 2 1 1 2 2 2 1 0 2 4 0 1 2 2 4 5 6 8 8 9 10 10 10 10 10 10 9 9 8 6 5 4 3 2 2 3 3 3 3 4
1 1 1 1 1 2 2 1 2 2 2 3 2 2 2 1 1 2 3 5 6 7 7 8 9 9 9 10 10 10 9 9 9 8 6 5 5 4 4 4 4 3 4 4
2 1 0 0 2 2 1 0 2 2 3 3 2 3 2 2 2 2 3 4 5 6 6 7 7 8 8 8 9 9 9 9 10 9 8 6 7 6 5 5 5 5 5 5
1 1 1 2 3 2 3 3 3 2 3 4 3 0 1 2 2 2 2 3 3 4 5 6 6 6 7 8 8 9 9 9 9 9 9 9 8 8 7 6 6 6 6 6
1 2 2 2 0 1 2 2 3 3 2 3 4 2 3 2 1 2 2 2 2 3 4 5 5 6 7 8 8 8 8 9 9 9 8 8 8 8 7 7 7 7 7 6
2 2 2 2 3 3 3 3 4 3 2 3 4 2 3 2 2 3 3 3 2 2 3 4 4 5 6 7 7 8 8 8 8 8 8 8 8 8 8 8 7 7 7 7
2 3 4 3 2 1 4 4 5 5 4 4 6 5 3 4 4 4 4 3 3 2 2 3 3 4 5 6 6 7 8 8 8 8 8 9 9 8 8 8 8 7 7 7
2 3 4 7 8 6 8 9 8 9 9 7 6 6 7 5 5 5 4 3 3 3 2 2 2 3 4 5 6 6 7 7 7 7 8 8 8 8 8 8 8 8 8 8
2 3 3 5 4 5 9 11 11 11 11 11 11 10 6 4 4 4 4 4 4 4 3 3 2 2 3 4 5 5 6 6 7 7 7 7 7 7 8 8 8 8 8 8
2 3 3 4 4 6 8 8 11 9 9 9 10 7 3 4 6 6 5 5 6 5 4 3 3 2 3 3 4 5 5 6 6 6 7 7 8 8 8 8 8 8 8 9
3 3 2 4 5 7 0 2 4 7 8 10 9 7 6 6 4 5 5 6 5 5 4 3 3 3 2 3 4 4 4 5 5 6 7 7 8 8 8 8 8 9 8 8
6 4 3 3 5 9 4 4 5 6 6 7 10 9 5 3 4 5 4 5 5 4 3 3 2 2 2 2 3 4 4 4 5 6 7 7 8 8 8 8 9 8 8 8
4 5 5 4 5 7 1 4 3 3 6 4 7 7 5 4 5 2 3 4 3 3 2 2 2 2 2 2 3 3 4 5 6 7 7 7 7 7 8 9 9 8 8 8
5 5 7 8 7 9 2 5 6 5 1 3 5 5 6 7 4 1 2 2 3 2 2 2 2 2 2 2 2 3 4 5 6 6 7 7 7 7 8 8 7 8 8 8
7 6 7 6 8 9 6 9 9 4 2 3 4 5 6 6 3 3 3 3 3 3 3 3 3 2 2 2 2 4 4 5 6 6 6 7 7 7 6 8 8 8 8 8
8 8 5 8 8 1 6 8 4 1 4 4 5 5 5 5 5 5 4 4 4 4 3 3 3 2 2 2 3 4 4 5 6 6 7 7 8 7 7 8 8 8 7 7
6 5 6 9 12 10 9 10 9 7 7 6 5 5 6 7 6 6 5 4 4 4 4 3 4 3 2 2 2 3 4 4 5 6 7 7 7 7 7 6 6 6 7 7
7 7 7 11 11 9 10 10 9 8 7 7 6 6 7 7 7 6 5 5 5 4 4 4 4 4 3 2 2 3 3 4 5 6 6 7 6 7 7 7 6 7 7 8
11 13 11 11 8 7 5 4 5 6 7 7 6 6 6 7 7 6 6 5 4 4 4 4 4 4 3 2 2 2 3 4 5 5 6 5 6 6 6 7 8 8 10 13
Wind_Direction
76 101 105 103 96 102 130 160 223 277 312 296 287 296 314 333 345 345 343 339 337 335 336 337 334 328 319 311 302 290 282 274 263 255 249 245 244 243 241 241 239 236 235 231
119 97 101 119 133 140 156 180 241 278 300 289 295 296 312 353 2 358 351 346 343 340 341 342 340 337 330 322 315 304 291 277 260 250 248 251 253 249 246 249 246 240 237 230
98 99 129 145 146 160 185 215 264 312 319 259 284 250 151 58 16 11 5 357 352 348 344 345 344 341 338 334 328 320 308 291 275 260 247 248 248 252 248 246 247 244 240 236
80 121 159 162 166 200 182 199 258 285 293 302 314 274 168 345 353 8 4 359 354 351 349 348 348 346 345 343 340 336 329 320 308 284 255 239 238 242 249 252 251 253 251 247
109 150 168 181 199 208 296 314 264 266 270 271 232 260 235 346 335 352 356 355 354 354 354 352 351 348 349 350 349 347 346 347 341 326 292 258 256 257 266 267 261 259 258 255
99 142 233 282 23 200 232 232 204 210 236 242 211 249 270 355 328 333 346 351 353 356 356 355 354 355 358 359 358 357 358 357 352 350 329 290 276 279 280 287 287 275 272 270
89 140 157 197 199 167 222 251 216 202 213 219 137 246 274 348 334 331 337 344 352 357 358 359 0 1 2 1 0 2 6 2 0 359 349 323 299 285 273 272 269 270 279 288
68 125 165 198 244 228 199 286 313 302 306 349 197 247 298 50 3 357 344 341 349 357 360 1 2 2 3 2 2 5 9 7 5 4 3 3 347 319 296 289 286 286 289 287
360 27 111 206 221 225 195 204 335 294 282 264 232 238 206 168 292 331 336 342 355 357 357 359 0 3 5 4 6 6 9 10 9 10 11 12 10 6 349 331 314 307 305 301
329 302 290 169 189 198 270 214 211 244 274 274 248 237 239 217 259 287 319 339 351 354 356 358 359 360 2 5 4 9 13 14 13 13 13 10 9 7 358 352 348 338 328 319
272 287 266 201 223 200 176 194 221 238 281 287 287 222 113 221 255 278 304 325 339 343 349 353 355 358 359 4 9 12 12 14 14 13 11 11 9 6 3 358 356 353 347 342
226 277 272 250 248 297 240 234 222 256 233 253 279 282 107 214 254 265 276 289 310 322 335 342 351 359 5 7 9 11 11 13 10 8 8 8 7 8 7 2 357 352 347 343
194 238 268 192 179 189 226 222 222 249 263 235 245 232 127 204 239 250 255 259 264 291 320 334 347 356 1 4 6 8 9 8 6 7 8 9 9 8 3 359 357 354 348 343
214 243 252 267 314 236 239 227 211 213 231 236 238 257 235 240 256 259 253 253 256 266 291 320 333 347 356 359 1 2 5 5 3 4 6 6 3 0 357 356 354 353 350 348
248 257 253 266 271 260 256 250 228 222 236 250 256 259 266 265 259 254 252 252 256 260 265 284 307 333 347 352 354 357 359 359 357 359 1 359 355 354 353 354 353 351 351 349
282 266 279 274 253 257 260 249 238 236 237 243 259 269 269 264 237 239 240 241 247 256 257 265 283 309 329 338 342 347 349 350 350 354 354 353 351 351 353 352 349 348 348 346
254 262 279 273 302 284 261 238 218 216 218 223 238 246 227 233 232 240 244 241 243 250 254 257 268 285 307 326 333 337 340 342 346 349 349 350 348 347 347 345 344 344 342 341
231 233 257 288 299 255 221 116 212 224 236 228 242 249 240 246 255 253 250 246 248 249 249 251 258 272 295 315 322 327 333 337 340 343 344 344 342 341 339 339 339 337 335 334
223 231 244 256 275 275 265 204 198 220 257 227 232 240 241 238 246 235 220 227 240 244 245 249 252 261 280 298 311 317 328 335 340 341 339 339 337 336 336 337 336 332 330 328
193 229 243 233 256 258 211 140 164 217 257 196 209 224 214 200 247 244 161 199 219 224 225 229 233 243 263 291 303 309 324 332 335 334 331 331 331 331 331 330 327 325 323 319
188 205 223 231 246 265 225 146 163 219 315 142 201 216 202 215 256 19 153 194 203 207 210 209 219 235 259 286 294 302 315 324 328 326 324 326 327 324 322 321 321 321 320 318
210 207 208 207 226 248 158 161 202 243 80 192 217 222 221 231 244 231 222 216 209 206 204 205 217 237 258 273 282 292 309 322 324 322 320 322 322 322 318 318 319 320 319 318
223 221 219 216 233 298 180 209 231 240 230 228 230 233 226 233 236 233 229 224 221 220 212 209 220 232 244 256 273 290 312 322 321 319 319 319 320 320 320 319 319 319 319 318
232 213 234 253 256 250 243 245 249 242 243 245 238 231 222 231 235 232 227 224 221 220 218 211 216 230 245 260 280 293 309 315 312 313 315 317 317 318 319 316 315 316 316 316
235 193 224 251 264 272 252 235 238 240 241 240 237 234 229 229 232 229 226 225 222 219 213 210 218 231 243 258 279 299 308 310 308 310 313 315 314 315 315 315 313 311 307 309
209 208 217 240 234 229 247 223 222 228 236 236 234 237 232 227 229 225 225 221 217 214 208 210 219 231 241 253 275 300 310 309 308 310 314 313 312 313 313 314 311 303 301 307